Home > Weather > Taloyoak > Past weeks

Flag for Canada Past Weather in Taloyoak, Nunavut, Canada — Yesterday and Last 2 Weeks

Now
50 °F

Partly sunny.


Feels Like: 46 °F
Forecast: 37 / 49 °F
Wind: 9 mph from East

Location: Spence Bay Airport

Current Time: Aug 24, 2016 at 5:33:21 PM

Latest Report: Aug 24, 2016 at 5:00 PM


Visibility: 15 mi

Pressure: 29.92 "Hg

Humidity: 54%

Dew Point: 34 °F

Location of TaloyoakLocation

Past Weather in Taloyoak — Graph

°F

Taloyoak Temperature Yesterday

Maximum temperature yesterday: 50 °F (at 5:00 PM)
Minimum temperature yesterday: 36 °F (at 1:00 AM)
Average temperature yesterday: 42 °F

High & Low Weather Summary for the Past Weeks

 TemperatureHumidityPressure
High63 °F (Aug 12, 1:00 PM)100% (Aug 11, 4:00 AM)30.11 "Hg (Aug 11, 4:00 AM)
Low36 °F (Aug 19, 3:00 AM)38% (Aug 21, 1:00 PM)29.62 "Hg (Aug 16, 9:00 PM)
Average48 °F75%29.89 "Hg
* Reported Aug 9 4:00 PM — Aug 24 4:00 PM, Taloyoak, Weather by CustomWeather, © 2016

Note: Actual official high and low records may vary slightly from our data, if they occured in-between our weather recording intervals... More about our weather records

Advertising

Taloyoak Weather History for the Previous 24 Hours

Scroll right to see more
 ConditionsComfort  
Time TempWeatherWind HumidityBarometerVisibility
4:00 PM
Wed, Aug 24
50 °FPartly sunny.3 mph67%29.92 "Hg15 mi
3:00 PM48 °FBroken clouds.6 mph76%29.92 "Hg15 mi
2:00 PM48 °FBroken clouds.7 mph76%29.92 "Hg15 mi
1:00 PM48 °FScattered clouds.8 mph76%29.92 "Hg15 mi
12:00 PM46 °FScattered clouds.7 mph82%29.92 "Hg15 mi
11:00 AM46 °FFog.5 mph82%29.93 "Hg15 mi
10:00 AM46 °FBroken clouds.3 mph82%29.93 "Hg15 mi
9:00 AM46 °FFog.2 mph76%29.93 "Hg15 mi
8:00 AM43 °FFog.No wind93%29.93 "Hg10 mi
7:00 AM39 °FFog.2 mph100%29.93 "Hg1 mi
6:00 AM37 °FFog.3 mph100%29.93 "Hg6 mi
5:00 AM37 °FFog.3 mph93%29.93 "Hg10 mi
4:00 AM37 °FPartly cloudy.No wind93%29.93 "Hg8 mi
3:00 AM37 °FFog.3 mph100%29.92 "Hg15 mi
2:00 AM39 °FPartly cloudy.2 mph100%29.93 "Hg15 mi
1:00 AM41 °FPassing clouds.No wind87%29.93 "Hg15 mi
12:00 AM41 °FPassing clouds.No wind87%29.92 "Hg15 mi
11:00 PM
Tue, Aug 23
41 °FPassing clouds.2 mph87%29.92 "Hg15 mi
10:00 PM41 °FPassing clouds.6 mph87%29.92 "Hg15 mi
9:00 PM41 °FPassing clouds.6 mph87%29.92 "Hg15 mi
8:00 PM43 °FPassing clouds.6 mph87%29.92 "Hg15 mi
7:00 PM46 °FPassing clouds.7 mph76%29.92 "Hg15 mi
6:00 PM50 °FPassing clouds.6 mph62%29.92 "Hg15 mi
5:00 PM50 °FPassing clouds.7 mph58%29.92 "Hg15 mi
Weather by CustomWeather, © 2016

See weather overviewHow to use our weather pages